| time (UTC) | temp F | wind direction | speed knots | gust knots | rain 1hr in | rain 24hr in | rain mn in | humidity % | barometer mb |
| 20260509041031 | 37 | 0 | 0.0 | 1.7 | 0.00 | 0.00 | 0.00 | 73 | 1011.6 |
| 20260509040532 | 37 | 0 | 0.0 | 0.9 | 0.00 | 0.00 | 0.00 | 73 | 1011.5 |
| 20260509040052 | 37 | 0 | 0.0 | 2.6 | 0.00 | 0.00 | 0.00 | 72 | 1011.6 |
| 20260509035532 | 37 | 0 | 0.0 | 2.6 | 0.00 | 0.00 | 0.00 | 72 | 1011.6 |
| 20260509035031 | 37 | 0 | 0.0 | 2.6 | 0.00 | 0.00 | 0.00 | 72 | 1011.5 |
| 20260509034543 | 37 | 0 | 0.0 | 4.3 | 0.00 | 0.00 | 0.00 | 73 | 1011.6 |
| 20260509034028 | 37 | 235 | 0.9 | 4.3 | 0.00 | 0.00 | 0.00 | 73 | 1011.7 |
| 20260509033528 | 37 | 234 | 0.9 | 5.2 | 0.00 | 0.00 | 0.00 | 73 | 1011.6 |
| 20260509033046 | 37 | 248 | 1.7 | 5.2 | 0.00 | 0.00 | 0.00 | 73 | 1011.6 |
| 20260509032532 | 37 | 236 | 1.7 | 7.0 | 0.00 | 0.00 | 0.00 | 73 | 1011.7 |
| 20260509032028 | 37 | 240 | 1.7 | 7.0 | 0.00 | 0.00 | 0.00 | 73 | 1011.6 |
| 20260509031546 | 37 | 227 | 0.9 | 3.5 | 0.00 | 0.00 | 0.00 | 73 | 1011.6 |
| 20260509031028 | 37 | 249 | 0.9 | 3.5 | 0.00 | 0.00 | 0.00 | 73 | 1011.6 |
| 20260509030531 | 37 | 249 | 0.9 | 3.5 | 0.00 | 0.00 | 0.00 | 73 | 1011.6 |
| 20260509030043 | 37 | 0 | 0.9 | 3.5 | 0.00 | 0.00 | 0.00 | 73 | 1011.5 |
| 20260509025530 | 37 | 209 | 0.0 | 2.6 | 0.00 | 0.00 | 0.00 | 73 | 1011.5 |
| 20260509025032 | 38 | 0 | 0.0 | 4.3 | 0.00 | 0.00 | 0.00 | 73 | 1011.5 |
| 20260509024537 | 38 | 0 | 0.0 | 4.3 | 0.00 | 0.00 | 0.00 | 72 | 1011.4 |
| 20260509024032 | 38 | 137 | 0.9 | 4.3 | 0.00 | 0.00 | 0.00 | 73 | 1011.4 |
| 20260509023531 | 38 | 213 | 0.0 | 3.5 | 0.00 | 0.00 | 0.00 | 72 | 1011.4 |
| 20260509023047 | 38 | 0 | 0.0 | 4.3 | 0.00 | 0.00 | 0.00 | 72 | 1011.4 |
| 20260509022531 | 38 | 222 | 1.7 | 7.8 | 0.00 | 0.00 | 0.00 | 72 | 1011.4 |
| 20260509022032 | 38 | 229 | 2.6 | 7.8 | 0.00 | 0.00 | 0.00 | 72 | 1011.3 |
| 20260509021543 | 38 | 246 | 1.7 | 3.5 | 0.00 | 0.00 | 0.00 | 72 | 1011.3 |
| 20260509021031 | 38 | 246 | 0.9 | 4.3 | 0.00 | 0.00 | 0.00 | 72 | 1011.3 |
| 20260509020531 | 38 | 247 | 1.7 | 4.3 | 0.00 | 0.00 | 0.00 | 72 | 1011.1 |
| 20260509020043 | 38 | 219 | 0.9 | 6.1 | 0.00 | 0.00 | 0.00 | 72 | 1011.1 |
| 20260509015535 | 39 | 202 | 2.6 | 6.1 | 0.00 | 0.00 | 0.00 | 71 | 1011.0 |
| 20260509015031 | 38 | 244 | 0.9 | 3.5 | 0.00 | 0.00 | 0.00 | 72 | 1010.9 |
| 20260509014543 | 39 | 0 | 0.9 | 3.5 | 0.00 | 0.00 | 0.00 | 72 | 1011.0 |
| 20260509014028 | 38 | 298 | 0.9 | 3.5 | 0.00 | 0.00 | 0.00 | 72 | 1010.9 |
| 20260509013533 | 38 | 250 | 0.9 | 3.5 | 0.00 | 0.00 | 0.00 | 72 | 1010.8 |
| 20260509013058 | 38 | 226 | 0.9 | 2.6 | 0.00 | 0.00 | 0.00 | 72 | 1010.9 |
| 20260509012532 | 38 | 240 | 0.9 | 3.5 | 0.00 | 0.00 | 0.00 | 72 | 1010.9 |
| 20260509012028 | 39 | 240 | 0.9 | 3.5 | 0.00 | 0.00 | 0.00 | 72 | 1010.9 |
| 20260509011539 | 39 | 233 | 1.7 | 3.5 | 0.00 | 0.00 | 0.00 | 72 | 1010.7 |
| 20260509011028 | 39 | 247 | 1.7 | 4.3 | 0.00 | 0.00 | 0.00 | 71 | 1010.7 |
| 20260509010531 | 39 | 231 | 1.7 | 6.1 | 0.00 | 0.00 | 0.00 | 71 | 1010.7 |
| 20260509010044 | 39 | 240 | 0.9 | 6.1 | 0.00 | 0.00 | 0.00 | 71 | 1010.5 |
| 20260509005532 | 39 | 244 | 1.7 | 6.1 | 0.00 | 0.00 | 0.00 | 71 | 1010.5 |
| 20260509005031 | 39 | 225 | 1.7 | 5.2 | 0.00 | 0.00 | 0.00 | 70 | 1010.5 |
| 20260509004608 | 39 | 257 | 1.7 | 5.2 | 0.00 | 0.00 | 0.00 | 71 | 1010.3 |
| 20260509004033 | 39 | 241 | 1.7 | 4.3 | 0.00 | 0.00 | 0.00 | 71 | 1010.2 |
| 20260509003532 | 39 | 241 | 1.7 | 6.1 | 0.00 | 0.00 | 0.00 | 70 | 1010.1 |
| 20260509003048 | 39 | 236 | 2.6 | 6.1 | 0.00 | 0.00 | 0.00 | 70 | 1009.9 |
| 20260509002533 | 40 | 239 | 2.6 | 7.8 | 0.00 | 0.00 | 0.00 | 70 | 1009.8 |
| 20260509002031 | 40 | 242 | 2.6 | 8.7 | 0.00 | 0.00 | 0.00 | 69 | 1009.7 |
| 20260509001544 | 40 | 261 | 4.3 | 8.7 | 0.00 | 0.00 | 0.00 | 70 | 1009.6 |
| 20260509001028 | 40 | 238 | 2.6 | 7.0 | 0.00 | 0.00 | 0.00 | 69 | 1009.7 |
| 20260509000531 | 40 | 211 | 3.5 | 8.7 | 0.00 | 0.00 | 0.00 | 69 | 1009.8 |
| 20260509000039 | 40 | 250 | 3.5 | 8.7 | 0.00 | 0.00 | 0.00 | 69 | 1009.8 |
| 20260508235530 | 40 | 221 | 2.6 | 6.1 | 0.00 | 0.00 | 0.00 | 69 | 1009.8 |
| 20260508235031 | 40 | 253 | 2.6 | 10.4 | 0.00 | 0.00 | 0.00 | 69 | 1009.8 |
| 20260508234546 | 40 | 248 | 2.6 | 10.4 | 0.00 | 0.00 | 0.00 | 70 | 1009.7 |
| 20260508234030 | 40 | 248 | 6.1 | 10.4 | 0.00 | 0.00 | 0.00 | 68 | 1009.5 |
| 20260508233532 | 40 | 240 | 4.3 | 9.6 | 0.00 | 0.00 | 0.00 | 69 | 1009.6 |
| 20260508233056 | 41 | 209 | 3.5 | 13.0 | 0.00 | 0.00 | 0.00 | 69 | 1009.5 |
| 20260508232532 | 41 | 263 | 3.5 | 13.0 | 0.00 | 0.00 | 0.00 | 69 | 1009.5 |
| 20260508232035 | 41 | 244 | 3.5 | 9.6 | 0.00 | 0.00 | 0.00 | 68 | 1009.5 |
| 20260508231544 | 41 | 257 | 3.5 | 9.6 | 0.00 | 0.00 | 0.00 | 68 | 1009.5 |
| 20260508231034 | 41 | 255 | 3.5 | 9.6 | 0.00 | 0.00 | 0.00 | 68 | 1009.5 |
| 20260508230531 | 41 | 263 | 2.6 | 9.6 | 0.00 | 0.00 | 0.00 | 68 | 1009.5 |
| 20260508230055 | 41 | 273 | 3.5 | 9.6 | 0.00 | 0.00 | 0.00 | 69 | 1009.4 |
| 20260508225531 | 41 | 263 | 1.7 | 9.6 | 0.00 | 0.00 | 0.00 | 70 | 1009.3 |
| 20260508225031 | 41 | 273 | 2.6 | 8.7 | 0.00 | 0.00 | 0.00 | 70 | 1009.4 |
| 20260508224544 | 41 | 249 | 3.5 | 11.3 | 0.00 | 0.00 | 0.00 | 69 | 1009.4 |
| 20260508224031 | 41 | 184 | 4.3 | 11.3 | 0.00 | 0.00 | 0.00 | 69 | 1009.3 |
| 20260508223531 | 41 | 224 | 4.3 | 9.6 | 0.00 | 0.00 | 0.00 | 69 | 1009.3 |
| 20260508223041 | 42 | 251 | 3.5 | 10.4 | 0.00 | 0.00 | 0.00 | 69 | 1009.3 |
| 20260508222530 | 42 | 216 | 4.3 | 10.4 | 0.00 | 0.00 | 0.00 | 68 | 1009.3 |
| 20260508222032 | 42 | 251 | 4.3 | 9.6 | 0.00 | 0.00 | 0.00 | 66 | 1009.2 |
| 20260508221546 | 43 | 261 | 2.6 | 7.0 | 0.00 | 0.00 | 0.00 | 66 | 1009.3 |
| 20260508221031 | 43 | 278 | 3.5 | 10.4 | 0.00 | 0.00 | 0.00 | 65 | 1009.4 |
| 20260508220531 | 44 | 264 | 3.5 | 10.4 | 0.00 | 0.00 | 0.00 | 64 | 1009.2 |
| 20260508220051 | 43 | 219 | 4.3 | 10.4 | 0.00 | 0.00 | 0.00 | 65 | 1009.3 |
| 20260508215530 | 44 | 264 | 2.6 | 7.8 | 0.00 | 0.00 | 0.00 | 64 | 1009.2 |
| 20260508215030 | 44 | 257 | 2.6 | 9.6 | 0.00 | 0.00 | 0.00 | 65 | 1009.2 |
| 20260508214548 | 43 | 210 | 4.3 | 11.3 | 0.00 | 0.00 | 0.00 | 64 | 1009.1 |
| 20260508214032 | 44 | 263 | 4.3 | 11.3 | 0.00 | 0.00 | 0.00 | 63 | 1009.1 |
| 20260508213533 | 44 | 256 | 3.5 | 10.4 | 0.00 | 0.00 | 0.00 | 63 | 1009.0 |
| 20260508213043 | 44 | 230 | 2.6 | 9.6 | 0.00 | 0.00 | 0.00 | 65 | 1009.0 |
| 20260508212529 | 43 | 234 | 5.2 | 9.6 | 0.00 | 0.00 | 0.00 | 67 | 1009.0 |
| 20260508212029 | 42 | 238 | 4.3 | 8.7 | 0.00 | 0.00 | 0.00 | 67 | 1009.0 |
| 20260508211543 | 43 | 241 | 3.5 | 11.3 | 0.00 | 0.00 | 0.00 | 67 | 1009.0 |
| 20260508211030 | 43 | 229 | 6.1 | 11.3 | 0.00 | 0.00 | 0.00 | 67 | 1008.9 |
| 20260508210530 | 43 | 247 | 4.3 | 11.3 | 0.00 | 0.00 | 0.00 | 67 | 1008.9 |
| 20260508210057 | 43 | 250 | 2.6 | 10.4 | 0.00 | 0.00 | 0.00 | 67 | 1008.9 |
| 20260508205530 | 43 | 218 | 3.5 | 12.2 | 0.00 | 0.00 | 0.00 | 66 | 1008.9 |
| 20260508205031 | 44 | 247 | 4.3 | 15.6 | 0.00 | 0.00 | 0.00 | 64 | 1008.9 |
| 20260508204545 | 45 | 292 | 6.1 | 20.9 | 0.00 | 0.00 | 0.00 | 57 | 1008.7 |
| 20260508204029 | 46 | 242 | 7.0 | 20.9 | 0.00 | 0.00 | 0.00 | 53 | 1008.5 |
| 20260508203529 | 48 | 230 | 9.6 | 20.9 | 0.00 | 0.00 | 0.00 | 50 | 1008.2 |
| 20260508203047 | 49 | 252 | 4.3 | 13.0 | 0.00 | 0.00 | 0.00 | 53 | 1008.4 |
| 20260508202530 | 48 | 253 | 5.2 | 13.0 | 0.00 | 0.00 | 0.00 | 51 | 1008.2 |
| 20260508202029 | 48 | 209 | 6.1 | 13.0 | 0.00 | 0.00 | 0.00 | 50 | 1008.2 |
| 20260508201546 | 48 | 215 | 3.5 | 12.2 | 0.00 | 0.00 | 0.00 | 51 | 1008.1 |
| 20260508201029 | 47 | 227 | 6.1 | 11.3 | 0.00 | 0.00 | 0.00 | 50 | 1008.1 |
| 20260508200531 | 47 | 215 | 4.3 | 13.9 | 0.00 | 0.00 | 0.00 | 51 | 1008.2 |
| 20260508200048 | 48 | 225 | 3.5 | 13.9 | 0.00 | 0.00 | 0.00 | 50 | 1008.1 |
| 20260508195530 | 48 | 190 | 4.3 | 13.9 | 0.00 | 0.00 | 0.00 | 51 | 1008.1 |
| 20260508195032 | 48 | 258 | 7.0 | 13.9 | 0.00 | 0.00 | 0.00 | 49 | 1008.1 |
| 20260508194545 | 48 | 266 | 6.1 | 14.8 | 0.00 | 0.00 | 0.00 | 50 | 1008.1 |
| 20260508194031 | 48 | 213 | 7.0 | 15.6 | 0.00 | 0.00 | 0.00 | 51 | 1008.2 |
| 20260508193529 | 48 | 252 | 7.8 | 15.6 | 0.00 | 0.00 | 0.00 | 49 | 1008.4 |
| 20260508193052 | 48 | 234 | 5.2 | 13.0 | 0.00 | 0.00 | 0.00 | 51 | 1008.2 |
| 20260508192529 | 48 | 206 | 5.2 | 13.0 | 0.00 | 0.00 | 0.00 | 50 | 1008.3 |
| 20260508192031 | 48 | 215 | 5.2 | 13.0 | 0.00 | 0.00 | 0.00 | 51 | 1008.2 |
| 20260508191548 | 48 | 178 | 5.2 | 13.0 | 0.00 | 0.00 | 0.00 | 52 | 1008.2 |
| 20260508191031 | 46 | 274 | 7.0 | 13.0 | 0.00 | 0.00 | 0.00 | 53 | 1008.1 |
| 20260508190532 | 46 | 239 | 4.3 | 13.0 | 0.00 | 0.00 | 0.00 | 52 | 1008.2 |
| 20260508190054 | 47 | 245 | 6.1 | 13.0 | 0.00 | 0.00 | 0.00 | 52 | 1008.2 |
| 20260508185529 | 47 | 184 | 6.1 | 13.0 | 0.00 | 0.00 | 0.00 | 53 | 1008.3 |
| 20260508185029 | 47 | 240 | 3.5 | 13.0 | 0.00 | 0.00 | 0.00 | 55 | 1008.4 |
| 20260508184600 | 47 | 136 | 6.1 | 14.8 | 0.00 | 0.00 | 0.00 | 53 | 1008.3 |
| 20260508184029 | 47 | 227 | 5.2 | 16.5 | 0.00 | 0.00 | 0.00 | 55 | 1008.4 |
| 20260508183529 | 46 | 221 | 7.0 | 16.5 | 0.00 | 0.00 | 0.00 | 55 | 1008.5 |
| 20260508183044 | 46 | 239 | 7.8 | 14.8 | 0.00 | 0.00 | 0.00 | 53 | 1008.5 |
| 20260508182530 | 47 | 240 | 7.0 | 14.8 | 0.00 | 0.00 | 0.00 | 53 | 1008.4 |
| 20260508182029 | 47 | 269 | 7.0 | 16.5 | 0.00 | 0.00 | 0.00 | 51 | 1008.4 |
| 20260508181557 | 47 | 261 | 7.0 | 16.5 | 0.00 | 0.00 | 0.00 | 52 | 1008.2 |
| 20260508181029 | 47 | 217 | 7.0 | 13.9 | 0.00 | 0.00 | 0.00 | 51 | 1008.3 |
| 20260508180529 | 46 | 197 | 6.1 | 13.9 | 0.00 | 0.00 | 0.00 | 52 | 1008.3 |
| 20260508180046 | 47 | 271 | 4.3 | 18.2 | 0.00 | 0.00 | 0.00 | 52 | 1008.2 |
| 20260508175530 | 47 | 258 | 5.2 | 18.2 | 0.00 | 0.00 | 0.00 | 51 | 1008.2 |
| 20260508175030 | 47 | 103 | 6.1 | 18.2 | 0.00 | 0.00 | 0.00 | 50 | 1008.3 |
| 20260508174545 | 47 | 219 | 7.0 | 16.5 | 0.00 | 0.00 | 0.00 | 51 | 1008.4 |
| 20260508174029 | 47 | 211 | 7.0 | 17.4 | 0.00 | 0.00 | 0.00 | 50 | 1008.4 |
| 20260508173530 | 48 | 211 | 7.0 | 17.4 | 0.00 | 0.00 | 0.00 | 50 | 1008.4 |
| 20260508173048 | 47 | 257 | 3.5 | 13.9 | 0.00 | 0.00 | 0.00 | 53 | 1008.4 |
| 20260508172529 | 46 | 256 | 6.1 | 13.9 | 0.00 | 0.00 | 0.00 | 50 | 1008.4 |
| 20260508172029 | 46 | 201 | 6.1 | 12.2 | 0.00 | 0.00 | 0.00 | 52 | 1008.4 |
| 20260508171544 | 46 | 195 | 5.2 | 16.5 | 0.00 | 0.00 | 0.00 | 53 | 1008.4 |
| 20260508171030 | 45 | 273 | 7.8 | 16.5 | 0.00 | 0.00 | 0.00 | 53 | 1008.5 |
| 20260508170532 | 44 | 190 | 7.0 | 16.5 | 0.00 | 0.00 | 0.00 | 55 | 1008.5 |
| 20260508170042 | 44 | 240 | 7.8 | 14.8 | 0.00 | 0.00 | 0.00 | 55 | 1008.4 |
| 20260508165530 | 44 | 240 | 5.2 | 14.8 | 0.00 | 0.00 | 0.00 | 55 | 1008.5 |
| 20260508165032 | 43 | 220 | 6.1 | 13.0 | 0.00 | 0.00 | 0.00 | 54 | 1008.4 |
| 20260508164558 | 43 | 277 | 5.2 | 13.9 | 0.00 | 0.00 | 0.00 | 54 | 1008.5 |
| 20260508164031 | 43 | 255 | 7.0 | 13.9 | 0.00 | 0.00 | 0.00 | 53 | 1008.5 |
| 20260508163531 | 43 | 186 | 6.1 | 11.3 | 0.00 | 0.00 | 0.00 | 53 | 1008.5 |
| 20260508163045 | 43 | 270 | 4.3 | 12.2 | 0.00 | 0.00 | 0.00 | 53 | 1008.4 |
| 20260508162531 | 43 | 231 | 5.2 | 12.2 | 0.00 | 0.00 | 0.00 | 53 | 1008.5 |
| 20260508162032 | 43 | 281 | 5.2 | 10.4 | 0.00 | 0.00 | 0.00 | 54 | 1008.6 |
| 20260508161549 | 43 | 254 | 4.3 | 10.4 | 0.00 | 0.00 | 0.00 | 54 | 1008.5 |
| 20260508161032 | 43 | 247 | 5.2 | 10.4 | 0.00 | 0.00 | 0.00 | 52 | 1008.5 |
| 20260508160530 | 43 | 250 | 3.5 | 10.4 | 0.00 | 0.00 | 0.00 | 52 | 1008.4 |
| 20260508160044 | 44 | 207 | 3.5 | 10.4 | 0.00 | 0.00 | 0.00 | 52 | 1008.6 |
| 20260508155529 | 44 | 235 | 5.2 | 9.6 | 0.00 | 0.00 | 0.00 | 51 | 1008.5 |
| 20260508155029 | 44 | 246 | 4.3 | 10.4 | 0.00 | 0.00 | 0.00 | 52 | 1008.6 |
| 20260508154544 | 45 | 227 | 3.5 | 10.4 | 0.00 | 0.00 | 0.00 | 50 | 1008.4 |
| 20260508154030 | 45 | 250 | 5.2 | 10.4 | 0.00 | 0.00 | 0.00 | 50 | 1008.5 |
| 20260508153531 | 44 | 238 | 2.6 | 13.0 | 0.00 | 0.00 | 0.00 | 51 | 1008.5 |
| 20260508153040 | 45 | 281 | 5.2 | 13.0 | 0.00 | 0.00 | 0.00 | 49 | 1008.5 |
| 20260508152529 | 45 | 252 | 6.1 | 20.9 | 0.00 | 0.00 | 0.00 | 48 | 1008.4 |
| 20260508152029 | 45 | 263 | 6.1 | 20.9 | 0.00 | 0.00 | 0.00 | 47 | 1008.4 |
| 20260508151538 | 45 | 231 | 4.3 | 11.3 | 0.00 | 0.00 | 0.00 | 49 | 1008.1 |
| 20260508151033 | 44 | 265 | 4.3 | 11.3 | 0.00 | 0.00 | 0.00 | 52 | 1008.3 |
| 20260508150529 | 44 | 234 | 7.0 | 11.3 | 0.00 | 0.00 | 0.00 | 51 | 1008.1 |
| 20260508150052 | 44 | 257 | 4.3 | 9.6 | 0.00 | 0.00 | 0.00 | 50 | 1008.1 |
| 20260508145531 | 45 | 253 | 3.5 | 9.6 | 0.00 | 0.00 | 0.00 | 49 | 1008.0 |
| 20260508145028 | 45 | 288 | 3.5 | 14.8 | 0.00 | 0.00 | 0.00 | 51 | 1008.0 |
| 20260508144601 | 45 | 277 | 2.6 | 14.8 | 0.00 | 0.00 | 0.00 | 49 | 1008.0 |
| 20260508144031 | 44 | 246 | 6.1 | 14.8 | 0.00 | 0.00 | 0.00 | 48 | 1008.1 |
| 20260508143531 | 44 | 320 | 3.5 | 12.2 | 0.00 | 0.00 | 0.00 | 51 | 1008.2 |
| 20260508143045 | 43 | 196 | 3.5 | 8.7 | 0.00 | 0.00 | 0.00 | 53 | 1008.3 |
| 20260508142533 | 43 | 0 | 4.3 | 8.7 | 0.00 | 0.00 | 0.00 | 52 | 1008.3 |
| 20260508142031 | 42 | 194 | 3.5 | 9.6 | 0.00 | 0.00 | 0.00 | 54 | 1008.3 |
| 20260508141550 | 42 | 254 | 3.5 | 11.3 | 0.00 | 0.00 | 0.00 | 54 | 1008.3 |
| 20260508141030 | 42 | 259 | 4.3 | 11.3 | 0.00 | 0.00 | 0.00 | 54 | 1008.4 |
| 20260508140530 | 42 | 275 | 3.5 | 9.6 | 0.00 | 0.00 | 0.00 | 53 | 1008.6 |
| 20260508140051 | 42 | 255 | 3.5 | 9.6 | 0.00 | 0.00 | 0.00 | 55 | 1008.5 |
| 20260508135532 | 41 | 248 | 4.3 | 9.6 | 0.00 | 0.00 | 0.00 | 56 | 1008.5 |
| 20260508135032 | 41 | 269 | 3.5 | 9.6 | 0.00 | 0.00 | 0.00 | 57 | 1008.5 |
| 20260508134553 | 41 | 280 | 2.6 | 8.7 | 0.00 | 0.00 | 0.00 | 58 | 1008.5 |
| 20260508134028 | 41 | 245 | 3.5 | 12.2 | 0.00 | 0.00 | 0.00 | 57 | 1008.6 |
| 20260508133531 | 41 | 263 | 4.3 | 12.2 | 0.00 | 0.00 | 0.00 | 58 | 1008.6 |
| 20260508133109 | 40 | 220 | 2.6 | 8.7 | 0.00 | 0.00 | 0.00 | 59 | 1008.6 |
| 20260508132530 | 40 | 224 | 4.3 | 10.4 | 0.00 | 0.00 | 0.00 | 59 | 1008.6 |
| 20260508132029 | 40 | 141 | 2.6 | 10.4 | 0.00 | 0.00 | 0.00 | 60 | 1008.6 |
| 20260508131547 | 40 | 264 | 6.1 | 10.4 | 0.00 | 0.00 | 0.00 | 60 | 1008.7 |
| 20260508131031 | 39 | 261 | 2.6 | 7.0 | 0.00 | 0.00 | 0.00 | 63 | 1008.8 |
| 20260508130530 | 39 | 264 | 2.6 | 13.9 | 0.00 | 0.00 | 0.00 | 65 | 1008.8 |
| 20260508130043 | 38 | 264 | 3.5 | 13.9 | 0.00 | 0.00 | 0.00 | 64 | 1008.7 |
| 20260508125530 | 38 | 218 | 4.3 | 13.0 | 0.00 | 0.00 | 0.00 | 64 | 1008.8 |
| 20260508125028 | 38 | 232 | 3.5 | 10.4 | 0.00 | 0.00 | 0.00 | 69 | 1008.6 |
| 20260508124541 | 37 | 257 | 3.5 | 10.4 | 0.00 | 0.00 | 0.00 | 70 | 1008.7 |
| 20260508124031 | 36 | 246 | 3.5 | 10.4 | 0.00 | 0.00 | 0.00 | 72 | 1008.7 |
| 20260508123533 | 36 | 231 | 2.6 | 7.0 | 0.00 | 0.00 | 0.00 | 72 | 1008.7 |
| 20260508123058 | 36 | 261 | 2.6 | 7.0 | 0.00 | 0.00 | 0.00 | 75 | 1008.7 |
| 20260508122528 | 36 | 269 | 2.6 | 7.0 | 0.00 | 0.00 | 0.00 | 75 | 1008.7 |
| 20260508122030 | 35 | 223 | 1.7 | 7.8 | 0.00 | 0.00 | 0.00 | 75 | 1008.7 |
| 20260508121544 | 35 | 236 | 1.7 | 7.8 | 0.00 | 0.00 | 0.00 | 75 | 1008.8 |
| 20260508121030 | 35 | 242 | 2.6 | 8.7 | 0.00 | 0.00 | 0.00 | 76 | 1008.7 |
| 20260508120530 | 34 | 270 | 4.3 | 8.7 | 0.00 | 0.00 | 0.00 | 75 | 1008.7 |
| 20260508120046 | 34 | 250 | 3.5 | 10.4 | 0.00 | 0.00 | 0.00 | 75 | 1008.9 |
| 20260508115530 | 35 | 232 | 3.5 | 10.4 | 0.00 | 0.00 | 0.00 | 73 | 1008.8 |
| 20260508115030 | 35 | 207 | 2.6 | 6.1 | 0.00 | 0.00 | 0.00 | 73 | 1008.8 |
| 20260508114540 | 35 | 204 | 1.7 | 6.1 | 0.00 | 0.00 | 0.00 | 72 | 1008.7 |
| 20260508114031 | 35 | 248 | 2.6 | 7.8 | 0.00 | 0.00 | 0.00 | 72 | 1008.7 |
| 20260508113531 | 35 | 292 | 2.6 | 7.8 | 0.00 | 0.00 | 0.00 | 72 | 1008.7 |
| 20260508113102 | 35 | 246 | 1.7 | 7.8 | 0.00 | 0.00 | 0.00 | 72 | 1008.7 |
| 20260508112534 | 35 | 257 | 2.6 | 7.8 | 0.00 | 0.00 | 0.00 | 72 | 1008.7 |
| 20260508112030 | 34 | 228 | 1.7 | 6.1 | 0.00 | 0.00 | 0.00 | 72 | 1008.6 |
| 20260508111546 | 34 | 285 | 2.6 | 7.8 | 0.00 | 0.00 | 0.00 | 72 | 1008.6 |
| 20260508111028 | 34 | 259 | 2.6 | 7.8 | 0.00 | 0.00 | 0.00 | 72 | 1008.5 |
| 20260508110528 | 34 | 264 | 2.6 | 6.1 | 0.00 | 0.00 | 0.00 | 72 | 1008.5 |
| 20260508110054 | 34 | 246 | 1.7 | 4.3 | 0.00 | 0.00 | 0.00 | 72 | 1008.4 |
| 20260508105530 | 34 | 243 | 1.7 | 6.1 | 0.00 | 0.00 | 0.00 | 72 | 1008.3 |
| 20260508105029 | 34 | 242 | 2.6 | 6.1 | 0.00 | 0.00 | 0.00 | 71 | 1008.2 |
| 20260508104544 | 34 | 244 | 1.7 | 5.2 | 0.00 | 0.00 | 0.00 | 71 | 1008.1 |
| 20260508104028 | 34 | 233 | 1.7 | 5.2 | 0.00 | 0.00 | 0.00 | 70 | 1008.1 |
| 20260508103529 | 34 | 237 | 0.9 | 6.1 | 0.00 | 0.00 | 0.00 | 71 | 1008.0 |
| 20260508103052 | 34 | 246 | 1.7 | 6.1 | 0.00 | 0.00 | 0.00 | 70 | 1008.0 |
| 20260508102530 | 34 | 240 | 1.7 | 5.2 | 0.00 | 0.00 | 0.00 | 69 | 1008.0 |
| 20260508102031 | 34 | 259 | 0.9 | 4.3 | 0.00 | 0.00 | 0.00 | 69 | 1007.9 |
| 20260508101541 | 34 | 0 | 0.0 | 2.6 | 0.00 | 0.00 | 0.00 | 69 | 1007.8 |
| 20260508101030 | 34 | 236 | 0.9 | 2.6 | 0.00 | 0.00 | 0.00 | 69 | 1007.7 |
| 20260508100532 | 34 | 0 | 0.0 | 0.0 | 0.00 | 0.00 | 0.00 | 69 | 1007.6 |
| 20260508100044 | 34 | 0 | 0.0 | 1.7 | 0.00 | 0.00 | 0.00 | 69 | 1007.6 |
| 20260508095529 | 34 | 0 | 0.0 | 4.3 | 0.00 | 0.00 | 0.00 | 69 | 1007.6 |
| 20260508095029 | 34 | 0 | 0.9 | 4.3 | 0.00 | 0.00 | 0.00 | 68 | 1007.7 |
| 20260508094543 | 34 | 218 | 1.7 | 4.3 | 0.00 | 0.00 | 0.00 | 68 | 1007.6 |
| 20260508094030 | 34 | 219 | 1.7 | 4.3 | 0.00 | 0.00 | 0.00 | 68 | 1007.6 |
| 20260508093530 | 34 | 239 | 0.9 | 4.3 | 0.00 | 0.00 | 0.00 | 68 | 1007.6 |
| 20260508093044 | 34 | 254 | 1.7 | 5.2 | 0.00 | 0.00 | 0.00 | 68 | 1007.6 |
| 20260508092531 | 34 | 255 | 1.7 | 5.2 | 0.00 | 0.00 | 0.00 | 67 | 1007.5 |
| 20260508092028 | 34 | 248 | 2.6 | 7.8 | 0.00 | 0.00 | 0.00 | 67 | 1007.3 |
| 20260508091552 | 34 | 263 | 3.5 | 7.8 | 0.00 | 0.00 | 0.00 | 67 | 1007.2 |
| 20260508091031 | 34 | 249 | 2.6 | 6.1 | 0.00 | 0.00 | 0.00 | 68 | 1007.3 |
| 20260508090530 | 34 | 235 | 2.6 | 6.1 | 0.00 | 0.00 | 0.00 | 68 | 1007.3 |
| 20260508090059 | 34 | 240 | 2.6 | 6.1 | 0.00 | 0.00 | 0.00 | 68 | 1007.3 |
| 20260508085530 | 34 | 246 | 2.6 | 7.0 | 0.00 | 0.00 | 0.00 | 68 | 1007.2 |
| 20260508085030 | 34 | 254 | 3.5 | 7.0 | 0.00 | 0.00 | 0.00 | 67 | 1007.2 |
| 20260508084546 | 34 | 252 | 3.5 | 7.0 | 0.00 | 0.00 | 0.00 | 67 | 1007.2 |
| 20260508084032 | 34 | 262 | 2.6 | 8.7 | 0.00 | 0.00 | 0.00 | 67 | 1007.3 |
| 20260508083531 | 35 | 258 | 2.6 | 8.7 | 0.00 | 0.00 | 0.00 | 67 | 1007.3 |
| 20260508083043 | 35 | 244 | 2.6 | 8.7 | 0.00 | 0.00 | 0.00 | 66 | 1007.2 |
| 20260508082532 | 35 | 257 | 3.5 | 7.8 | 0.00 | 0.00 | 0.00 | 66 | 1007.1 |
| 20260508082030 | 35 | 259 | 3.5 | 7.8 | 0.00 | 0.00 | 0.00 | 66 | 1007.0 |
| 20260508081546 | 35 | 263 | 2.6 | 7.0 | 0.00 | 0.00 | 0.00 | 66 | 1007.0 |
| 20260508081032 | 35 | 248 | 2.6 | 7.0 | 0.00 | 0.00 | 0.00 | 66 | 1007.0 |
| 20260508080533 | 35 | 240 | 3.5 | 7.0 | 0.00 | 0.00 | 0.00 | 67 | 1007.1 |
| 20260508080039 | 35 | 244 | 3.5 | 8.7 | 0.00 | 0.00 | 0.00 | 66 | 1007.1 |
| 20260508075530 | 35 | 257 | 3.5 | 8.7 | 0.00 | 0.00 | 0.00 | 66 | 1007.1 |
| 20260508075027 | 35 | 255 | 4.3 | 7.8 | 0.00 | 0.00 | 0.00 | 66 | 1007.0 |
| 20260508074543 | 35 | 240 | 3.5 | 8.7 | 0.00 | 0.00 | 0.00 | 67 | 1007.0 |
| 20260508074031 | 35 | 248 | 3.5 | 8.7 | 0.00 | 0.00 | 0.00 | 67 | 1007.0 |
| 20260508073527 | 35 | 248 | 4.3 | 7.8 | 0.00 | 0.00 | 0.00 | 67 | 1006.9 |
| 20260508073043 | 35 | 249 | 3.5 | 11.3 | 0.00 | 0.00 | 0.00 | 67 | 1006.9 |
| 20260508072532 | 35 | 229 | 4.3 | 11.3 | 0.00 | 0.00 | 0.00 | 66 | 1006.8 |
| 20260508072031 | 35 | 227 | 3.5 | 10.4 | 0.00 | 0.00 | 0.00 | 66 | 1006.7 |
| 20260508071553 | 35 | 246 | 4.3 | 9.6 | 0.00 | 0.00 | 0.00 | 67 | 1006.6 |
| 20260508071033 | 35 | 253 | 4.3 | 8.7 | 0.00 | 0.00 | 0.00 | 67 | 1006.6 |
| 20260508070530 | 35 | 253 | 4.3 | 9.6 | 0.00 | 0.00 | 0.00 | 67 | 1006.5 |
| 20260508070044 | 35 | 252 | 3.5 | 9.6 | 0.00 | 0.00 | 0.00 | 67 | 1006.5 |
| 20260508065529 | 35 | 262 | 3.5 | 8.7 | 0.00 | 0.00 | 0.00 | 67 | 1006.5 |
| 20260508065031 | 35 | 251 | 4.3 | 9.6 | 0.00 | 0.00 | 0.00 | 67 | 1006.6 |
| 20260508064539 | 35 | 261 | 4.3 | 9.6 | 0.00 | 0.00 | 0.00 | 66 | 1006.7 |
| 20260508064032 | 35 | 256 | 4.3 | 8.7 | 0.00 | 0.00 | 0.00 | 66 | 1006.8 |
| 20260508063531 | 35 | 247 | 3.5 | 7.8 | 0.00 | 0.00 | 0.00 | 66 | 1006.8 |
| 20260508063043 | 35 | 243 | 3.5 | 10.4 | 0.00 | 0.00 | 0.00 | 66 | 1006.8 |
| 20260508062530 | 35 | 219 | 4.3 | 11.3 | 0.00 | 0.00 | 0.00 | 65 | 1006.8 |
| 20260508062030 | 35 | 232 | 4.3 | 11.3 | 0.00 | 0.00 | 0.00 | 66 | 1006.8 |
| 20260508061545 | 35 | 274 | 3.5 | 7.8 | 0.00 | 0.00 | 0.00 | 66 | 1006.8 |
| 20260508061031 | 35 | 260 | 3.5 | 7.8 | 0.00 | 0.00 | 0.00 | 65 | 1006.8 |
| 20260508060528 | 35 | 259 | 4.3 | 7.8 | 0.00 | 0.00 | 0.00 | 64 | 1006.9 |
| 20260508060044 | 35 | 255 | 3.5 | 7.8 | 0.00 | 0.00 | 0.00 | 64 | 1007.0 |
| 20260508055530 | 36 | 236 | 3.5 | 7.8 | 0.00 | 0.00 | 0.00 | 64 | 1007.0 |
| 20260508055030 | 36 | 246 | 3.5 | 7.8 | 0.00 | 0.00 | 0.00 | 64 | 1007.0 |
| 20260508054545 | 35 | 257 | 3.5 | 7.8 | 0.00 | 0.00 | 0.00 | 64 | 1007.1 |
| 20260508054030 | 35 | 221 | 2.6 | 6.1 | 0.00 | 0.00 | 0.00 | 63 | 1007.2 |
| 20260508053532 | 35 | 255 | 2.6 | 6.1 | 0.00 | 0.00 | 0.00 | 64 | 1007.1 |
| 20260508053100 | 35 | 247 | 1.7 | 7.0 | 0.00 | 0.00 | 0.00 | 63 | 1007.2 |
| 20260508052530 | 36 | 252 | 2.6 | 7.0 | 0.00 | 0.00 | 0.00 | 63 | 1007.2 |
| 20260508052029 | 36 | 250 | 1.7 | 5.2 | 0.00 | 0.00 | 0.00 | 63 | 1007.1 |
| 20260508051541 | 36 | 238 | 2.6 | 5.2 | 0.00 | 0.00 | 0.00 | 63 | 1007.2 |
| 20260508051030 | 36 | 228 | 1.7 | 7.0 | 0.00 | 0.00 | 0.00 | 63 | 1007.2 |
| 20260508050531 | 36 | 249 | 1.7 | 7.0 | 0.00 | 0.00 | 0.00 | 63 | 1007.3 |
| 20260508050047 | 36 | 246 | 1.7 | 7.0 | 0.00 | 0.00 | 0.00 | 63 | 1007.2 |
| 20260508045533 | 36 | 248 | 1.7 | 7.0 | 0.00 | 0.00 | 0.00 | 63 | 1007.3 |
| 20260508045030 | 36 | 272 | 1.7 | 7.0 | 0.00 | 0.00 | 0.00 | 64 | 1007.2 |
| 20260508044544 | 36 | 263 | 2.6 | 7.0 | 0.00 | 0.00 | 0.00 | 63 | 1007.4 |
| 20260508044032 | 36 | 259 | 1.7 | 5.2 | 0.00 | 0.00 | 0.00 | 63 | 1007.5 |
| 20260508043530 | 36 | 249 | 1.7 | 4.3 | 0.00 | 0.00 | 0.00 | 63 | 1007.3 |
| 20260508043044 | 36 | 301 | 0.9 | 4.3 | 0.00 | 0.00 | 0.00 | 63 | 1007.4 |
| 20260508042532 | 36 | 273 | 0.9 | 5.2 | 0.00 | 0.00 | 0.00 | 63 | 1007.5 |
| 20260508042032 | 36 | 252 | 1.7 | 6.1 | 0.00 | 0.00 | 0.00 | 63 | 1007.6 |
| 20260508041607 | 36 | 261 | 1.7 | 6.1 | 0.00 | 0.00 | 0.00 | 64 | 1007.7 |